WAT5643 EHAM-KATL

Flight info

Callsign WAT5643
Flight time N/A
Altitude 36000
Route IDRID L980 MANGO DCT ENHAQ DCT GAJIT DCT BAPHU DCT LESLU/M085F360 DCT RODEL/M085F370 DCT 51N020W 51N030W 5030N04000W 48N050W DCT NICSO/N0476F380 N260B ALLEX/N0477F400 DCT AJJAY DCT PEASE DCT GDM DCT PWL DCT SAX DCT LRP DCT MOL DCT FLASK OZZZI2
Aircraft A359/H-SDE2E3GHIJ3J4J5LM1ORWXY/LB1D1

Departure

Time 2026-05-05 21:37
Airport Amsterdam Airport Schiphol (EHAM)

Arrival

Time N/A
Airport Hartsfield Jackson Atlanta International Airport (KATL)
Time Latitude Longitude Altitude Speed Heading
2026-05-05 21:21 52.30536 4.76829 8 ft 0 kts 294°
2026-05-05 21:25 52.30536 4.76830 8 ft 0 kts 294°
2026-05-05 21:25 52.30529 4.76849 8 ft 1 kts 304°
2026-05-05 21:26 52.30523 4.76862 8 ft 2 kts 293°
2026-05-05 21:26 52.30522 4.76887 8 ft 2 kts 251°
2026-05-05 21:26 52.30532 4.76911 8 ft 2 kts 215°
2026-05-05 21:26 52.30547 4.76921 9 ft 2 kts 180°
2026-05-05 21:27 52.30561 4.76917 9 ft 0 kts 151°
2026-05-05 21:27 52.30566 4.76912 10 ft 0 kts 150°
2026-05-05 21:29 52.30564 4.76914 9 ft 1 kts 149°
2026-05-05 21:29 52.30544 4.76933 9 ft 5 kts 149°
2026-05-05 21:30 52.30503 4.76973 7 ft 8 kts 149°
2026-05-05 21:30 52.30491 4.76983 7 ft 0 kts 165°
2026-05-05 21:30 52.30483 4.76979 7 ft 2 kts 206°
2026-05-05 21:30 52.30461 4.76944 6 ft 6 kts 230°
2026-05-05 21:31 52.30430 4.76875 5 ft 8 kts 233°
2026-05-05 21:31 52.30393 4.76793 5 ft 5 kts 236°
2026-05-05 21:31 52.30369 4.76736 4 ft 7 kts 236°
2026-05-05 21:31 52.30357 4.76712 4 ft 1 kts 212°
2026-05-05 21:32 52.30344 4.76715 4 ft 3 kts 154°
2026-05-05 21:32 52.30329 4.76773 3 ft 8 kts 86°
2026-05-05 21:32 52.30341 4.76847 4 ft 5 kts 70°
2026-05-05 21:32 52.30352 4.76891 4 ft 4 kts 69°
2026-05-05 21:33 52.30363 4.76938 4 ft 4 kts 69°
2026-05-05 21:33 52.30376 4.76989 4 ft 5 kts 66°
2026-05-05 21:33 52.30389 4.77034 5 ft 3 kts 64°
2026-05-05 21:33 52.30396 4.77056 6 ft 0 kts 60°
2026-05-05 21:34 52.30397 4.77059 6 ft 0 kts 60°
2026-05-05 21:34 52.30399 4.77064 6 ft 3 kts 59°
2026-05-05 21:34 52.30421 4.77124 8 ft 7 kts 57°
2026-05-05 21:35 52.30448 4.77186 9 ft 6 kts 54°
2026-05-05 21:35 52.30477 4.77257 10 ft 9 kts 58°
2026-05-05 21:35 52.30498 4.77354 10 ft 9 kts 85°
2026-05-05 21:35 52.30464 4.77431 10 ft 9 kts 169°
2026-05-05 21:36 52.30391 4.77426 8 ft 11 kts 184°
2026-05-05 21:36 52.30343 4.77407 7 ft 8 kts 218°
2026-05-05 21:36 52.30209 4.77026 2 ft 77 kts 243°
2026-05-05 21:36 52.29809 4.76005 1 ft 139 kts 235°
2026-05-05 21:37 52.29222 4.74520 17 ft 188 kts 241°
2026-05-05 21:37 52.28536 4.72684 529 ft 195 kts 239°
2026-05-05 21:37 52.27794 4.70824 1316 ft 194 kts 238°
2026-05-05 21:37 52.26985 4.69231 1948 ft 199 kts 227°
2026-05-05 21:38 52.26026 4.67667 2423 ft 208 kts 225°
2026-05-05 21:38 52.25021 4.66097 2706 ft 220 kts 226°
2026-05-05 21:38 52.24117 4.64065 2962 ft 232 kts 248°
2026-05-05 21:38 52.23517 4.61502 3267 ft 246 kts 255°
2026-05-05 21:39 52.22972 4.58708 3614 ft 261 kts 255°
2026-05-05 21:39 52.22394 4.55742 4012 ft 276 kts 255°
2026-05-05 21:39 52.21778 4.52702 4672 ft 281 kts 253°
2026-05-05 21:39 52.21139 4.49624 5432 ft 282 kts 253°
2026-05-05 21:40 52.20496 4.46556 6175 ft 283 kts 253°
2026-05-05 21:40 52.19838 4.43431 6929 ft 284 kts 253°
2026-05-05 21:40 52.19195 4.40388 7642 ft 285 kts 253°